Location: Zapote
(9.9191°N, 84.0597°W)
Time: 13:24:56
(UTC-06:00)

A-11 Canister half - All Passes

Search period start: 04 March 2021 00:00
Search period end: 14 March 2021 00:00
Orbit: 1516 x 1684 km, 47.2° (Epoch: 03 March)

Date Brightness Start Highest point End Pass type
(mag) Time Alt. Az. Time Alt. Az. Time Alt. Az.
04 Mar - 05:54:07 10° SSW 06:03:40 50° SE 06:13:20 10° NE daylight
04 Mar - 07:59:29 10° WSW 08:08:40 39° NW 08:17:56 10° NNE daylight
04 Mar - 14:36:47 10° NNE 14:38:19 10° NNE 14:39:50 10° NE daylight
04 Mar - 16:35:40 10° NNW 16:44:56 51° NE 16:53:53 10° ESE daylight
04 Mar - 18:41:20 10° WNW 18:49:32 34° SW 18:57:37 10° S visible
05 Mar - 05:31:22 10° SSW 05:40:45 46° SE 05:50:14 10° ENE daylight
05 Mar - 07:36:20 10° WSW 07:45:40 43° NW 07:55:07 10° NNE daylight
05 Mar - 16:12:49 10° NNW 16:22:00 47° NE 16:30:51 10° ESE daylight
05 Mar - 18:18:11 10° WNW 18:26:38 37° SW 18:34:58 10° SSE visible
06 Mar - 05:08:38 10° SSW 05:17:49 42° SE 05:27:08 10° ENE visible
06 Mar - 07:13:13 10° WSW 07:22:41 46° NW 07:32:18 10° NNE daylight
06 Mar - 15:49:59 10° NNW 15:59:03 44° NE 16:07:48 10° ESE daylight
06 Mar - 17:55:03 10° WNW 18:03:45 41° SW 18:12:17 10° SSE visible
07 Mar - 04:45:56 10° SSW 04:54:53 39° SE 05:03:59 10° ENE visible
07 Mar - 06:50:07 10° WSW 06:59:42 50° NW 07:09:27 10° NNE daylight
07 Mar - 09:04:42 10° NW 09:06:34 11° NNW 09:08:25 10° NNW daylight
07 Mar - 15:27:10 10° NNW 15:36:06 40° NE 15:44:43 10° ESE daylight
07 Mar - 17:31:57 10° WNW 17:40:52 45° SW 17:49:35 10° SSE daylight
08 Mar - 04:23:15 10° S 04:31:58 35° SE 04:40:48 10° ENE visible
08 Mar - 06:27:03 10° WSW 06:36:44 54° NW 06:46:35 10° NNE daylight
08 Mar - 08:40:13 10° NW 08:43:25 12° NNW 08:46:37 10° NNW daylight
08 Mar - 15:04:21 10° NNW 15:13:08 37° NE 15:21:36 10° ESE daylight
08 Mar - 17:08:53 10° WNW 17:17:59 49° SW 17:26:51 10° SSE daylight
09 Mar - 04:00:37 10° S 04:09:02 32° SE 04:17:36 10° ENE visible
09 Mar - 06:04:01 10° SW 06:13:46 58° NW 06:23:43 10° NNE daylight
09 Mar - 08:16:11 10° WNW 08:20:17 13° NNW 08:24:24 10° N daylight
09 Mar - 14:41:33 10° NNW 14:50:09 34° NE 14:58:28 10° ESE daylight
09 Mar - 16:45:50 10° NW 16:55:05 54° SW 17:04:06 10° SSE daylight
10 Mar - 03:37:59 10° S 03:46:07 29° SE 03:54:21 10° ENE visible
10 Mar - 05:41:00 10° SW 05:50:48 63° NW 06:00:50 10° NNE daylight
10 Mar - 07:52:21 10° WNW 07:57:10 14° NW 08:02:00 10° N daylight
10 Mar - 14:18:46 10° NNW 14:27:11 32° NE 14:35:18 10° ESE daylight
10 Mar - 16:22:47 10° NW 16:32:12 59° SW 16:41:19 10° SSE daylight
11 Mar - 03:15:25 10° S 03:23:11 26° SE 03:31:04 10° ENE visible
11 Mar - 05:18:00 10° SW 05:27:50 68° NW 05:37:56 10° NNE visible
11 Mar - 07:28:39 10° WNW 07:34:03 15° NW 07:39:31 10° N daylight
11 Mar - 13:55:59 10° NNW 14:04:11 29° NE 14:12:06 10° E daylight
11 Mar - 15:59:46 10° NW 16:09:18 64° SW 16:18:33 10° SSE daylight
12 Mar - 02:52:54 10° S 03:00:15 24° SE 03:07:44 10° ENE visible
12 Mar - 04:55:02 10° SW 05:04:53 73° NW 05:15:02 10° NE visible
12 Mar - 07:05:02 10° WNW 07:10:58 17° NW 07:16:57 10° N daylight
12 Mar - 13:33:13 10° NNW 13:41:11 27° NE 13:48:53 10° E daylight
12 Mar - 15:36:45 10° NW 15:46:24 70° SW 15:55:44 10° SSE daylight
12 Mar - 17:49:16 10° WSW 17:51:00 11° SW 17:52:45 10° SW daylight
13 Mar - 02:30:25 10° S 02:37:19 22° SE 02:44:20 10° E visible
13 Mar - 04:32:04 10° SW 04:41:57 79° NW 04:52:06 10° NE visible
13 Mar - 06:41:30 10° WNW 06:47:53 18° NW 06:54:20 10° N daylight
13 Mar - 13:10:29 10° N 13:18:09 25° NE 13:25:38 10° E daylight
13 Mar - 15:13:47 10° NW 15:23:30 76° SW 15:32:54 10° SE daylight
13 Mar - 17:24:38 10° WSW 17:28:04 12° SW 17:31:29 10° SSW daylight
